Location: Berg
(48.5667°N, 13.9833°E)
Time: 04:08:51
(UTC+00:00)

Cosmos 2360 Rocket - Pass Details

Date: 09 April 2020
Orbit: 833 x 845 km, 71.0° (Epoch: 06 June)

Event Time Altitude Azimuth Distance (km) Brightness Sun altitude
Rises 23:12:46 0° 330° (NNW) 3,394 6.1 -33.4°
Reaches altitude 10° 23:15:13 10° 328° (NNW) 2,457 5.2 -33.4°
Enters shadow 23:18:38 38° 318° (NW) 1,266 3.3 -33.3°
